Hourly Weather Klaczno

Today, 30 July, Friday

Time Temperature Precipitation Wind Pressure Humidity
00:00 +14°C° 0 mm 3 mps 742 mmHg 70%
01:00 +14°C° 0 mm 3 mps 742 mmHg 71%
02:00 +13°C° 0 mm 3 mps 742 mmHg 73%
03:00 +13°C° 0 mm 3 mps 742 mmHg 76%
04:00 +13°C° 0 mm 3 mps 742 mmHg 78%
05:00 +14°C° 0 mm 4 mps 741 mmHg 73%
06:00 +15°C° 0 mm 5 mps 741 mmHg 67%
07:00 +17°C° 0 mm 6 mps 741 mmHg 62%
08:00 +19°C° 0 mm 6 mps 741 mmHg 54%
09:00 +20°C° 0 mm 7 mps 741 mmHg 46%
10:00 +22°C° 0 mm 7 mps 741 mmHg 39%
11:00 +23°C° 0 mm 7 mps 741 mmHg 37%
12:00 +23°C° 0 mm 7 mps 741 mmHg 36%
13:00 +24°C° 0 mm 7 mps 741 mmHg 34%
14:00 +24°C° 0 mm 7 mps 740 mmHg 35%
15:00 +24°C° 0 mm 7 mps 740 mmHg 35%
16:00 +24°C° 0 mm 6 mps 740 mmHg 36%
17:00 +23°C° 0 mm 5 mps 740 mmHg 41%
18:00 +22°C° 0 mm 4 mps 740 mmHg 46%
19:00 +21°C° 0 mm 4 mps 740 mmHg 51%
20:00 +19°C° 0 mm 3 mps 740 mmHg 58%
21:00 +18°C° 0 mm 2 mps 741 mmHg 65%
22:00 +16°C° 0 mm 2 mps 741 mmHg 72%
23:00 +16°C° 0 mm 2 mps 741 mmHg 73%

Tomorrow, 31 July, Saturday

Time Temperature Precipitation Wind Pressure Humidity
00:00 +15°C° 0 mm 2 mps 741 mmHg 74%
01:00 +15°C° 0 mm 2 mps 740 mmHg 75%
02:00 +15°C° 0 mm 2 mps 740 mmHg 74%
03:00 +15°C° 0 mm 2 mps 740 mmHg 73%
04:00 +15°C° 0 mm 2 mps 740 mmHg 72%
05:00 +16°C° 0 mm 3 mps 740 mmHg 67%
06:00 +18°C° 0 mm 3 mps 740 mmHg 63%
07:00 +20°C° 0 mm 4 mps 740 mmHg 58%
08:00 +22°C° 0 mm 4 mps 739 mmHg 54%
09:00 +23°C° 0 mm 5 mps 739 mmHg 50%
10:00 +26°C° 0 mm 5 mps 739 mmHg 47%
11:00 +26°C° 0.1 mm 5 mps 739 mmHg 44%
12:00 +27°C° 0.1 mm 6 mps 739 mmHg 42%
13:00 +27°C° 0.1 mm 6 mps 739 mmHg 39%
14:00 +27°C° 0 mm 6 mps 738 mmHg 38%
15:00 +27°C° 0 mm 6 mps 738 mmHg 38%
16:00 +26°C° 0 mm 7 mps 738 mmHg 37%
17:00 +24°C° 0 mm 6 mps 738 mmHg 41%
18:00 +23°C° 0 mm 6 mps 739 mmHg 46%
19:00 +21°C° 0 mm 5 mps 739 mmHg 51%
20:00 +20°C° 0 mm 5 mps 739 mmHg 55%
21:00 +19°C° 0 mm 5 mps 739 mmHg 59%
22:00 +17°C° 0 mm 5 mps 739 mmHg 62%
23:00 +17°C° 0 mm 5 mps 739 mmHg 67%

Day after tomorrow, 1 August, Sunday

Time Temperature Precipitation Wind Pressure Humidity
00:00 +16°C° 0 mm 5 mps 740 mmHg 73%
01:00 +16°C° 0 mm 5 mps 740 mmHg 78%
02:00 +15°C° 0 mm 4 mps 740 mmHg 81%
03:00 +15°C° 0 mm 4 mps 740 mmHg 85%
04:00 +14°C° 0 mm 4 mps 740 mmHg 89%
05:00 +15°C° 0 mm 4 mps 740 mmHg 85%
06:00 +17°C° 0 mm 4 mps 740 mmHg 81%
07:00 +18°C° 0 mm 4 mps 740 mmHg 77%
08:00 +18°C° 0 mm 4 mps 741 mmHg 73%
09:00 +19°C° 0 mm 4 mps 741 mmHg 68%
10:00 +20°C° 0 mm 4 mps 741 mmHg 63%
11:00 +21°C° 0 mm 4 mps 741 mmHg 58%
12:00 +22°C° 0 mm 4 mps 741 mmHg 52%
13:00 +23°C° 0 mm 4 mps 741 mmHg 46%
14:00 +22°C° 0 mm 4 mps 741 mmHg 47%
15:00 +22°C° 0 mm 3 mps 741 mmHg 48%
16:00 +22°C° 0 mm 3 mps 741 mmHg 49%
17:00 +21°C° 0 mm 3 mps 741 mmHg 54%
18:00 +20°C° 0 mm 2 mps 741 mmHg 58%
19:00 +19°C° 0 mm 2 mps 741 mmHg 62%
20:00 +19°C° 0 mm 1 mps 741 mmHg 66%
21:00 +18°C° 0 mm 1 mps 741 mmHg 70%
22:00 +16°C° 0 mm 1 mps 741 mmHg 74%
23:00 +16°C° 0 mm 1 mps 741 mmHg 76%

2 August, Monday

Time Temperature Precipitation Wind Pressure Humidity
00:00 +15°C° 0 mm 1 mps 741 mmHg 78%
01:00 +15°C° 0 mm 2 mps 741 mmHg 80%
02:00 +15°C° 0 mm 2 mps 741 mmHg 81%
03:00 +14°C° 0 mm 2 mps 741 mmHg 82%
04:00 +14°C° 0 mm 2 mps 740 mmHg 83%
05:00 +15°C° 0.1 mm 2 mps 740 mmHg 81%
06:00 +16°C° 0.1 mm 3 mps 740 mmHg 79%
07:00 +17°C° 0.1 mm 4 mps 741 mmHg 77%
08:00 +18°C° 0.4 mm 4 mps 741 mmHg 74%
09:00 +17°C° 0.4 mm 5 mps 741 mmHg 71%
10:00 +19°C° 0.4 mm 5 mps 741 mmHg 68%
11:00 +20°C° 0.1 mm 5 mps 741 mmHg 61%
12:00 +20°C° 0.1 mm 5 mps 741 mmHg 53%
13:00 +21°C° 0.1 mm 5 mps 742 mmHg 45%
14:00 +21°C° 0 mm 5 mps 742 mmHg 45%
15:00 +21°C° 0 mm 5 mps 742 mmHg 44%
16:00 +21°C° 0 mm 5 mps 742 mmHg 44%
17:00 +20°C° 0 mm 5 mps 742 mmHg 48%
18:00 +19°C° 0 mm 4 mps 743 mmHg 52%
19:00 +18°C° 0 mm 4 mps 743 mmHg 56%
20:00 +17°C° 0 mm 4 mps 743 mmHg 61%
21:00 +17°C° 0 mm 3 mps 743 mmHg 66%
22:00 +16°C° 0 mm 3 mps 744 mmHg 71%
23:00 +14°C° 0 mm 3 mps 744 mmHg 73%

3 August, Tuesday

Time Temperature Precipitation Wind Pressure Humidity
00:00 +14°C° 0 mm 4 mps 744 mmHg 75%
01:00 +13°C° 0 mm 4 mps 744 mmHg 76%
02:00 +13°C° 0 mm 4 mps 744 mmHg 80%
03:00 +13°C° 0 mm 4 mps 744 mmHg 84%
04:00 +12°C° 0 mm 4 mps 745 mmHg 87%
05:00 +13°C° 0 mm 4 mps 745 mmHg 83%
06:00 +14°C° 0 mm 4 mps 745 mmHg 78%
07:00 +16°C° 0 mm 5 mps 745 mmHg 74%
08:00 +17°C° 0 mm 5 mps 745 mmHg 65%
09:00 +20°C° 0 mm 5 mps 746 mmHg 56%
10:00 +21°C° 0 mm 5 mps 746 mmHg 48%
11:00 +22°C° 0 mm 5 mps 746 mmHg 45%
12:00 +22°C° 0 mm 5 mps 746 mmHg 42%
13:00 +22°C° 0 mm 5 mps 746 mmHg 40%
14:00 +22°C° 0 mm 4 mps 746 mmHg 41%
15:00 +22°C° 0 mm 4 mps 746 mmHg 42%
16:00 +22°C° 0 mm 3 mps 746 mmHg 43%
17:00 +21°C° 0 mm 3 mps 746 mmHg 50%
18:00 +19°C° 0 mm 2 mps 746 mmHg 57%
19:00 +18°C° 0 mm 2 mps 746 mmHg 64%
20:00 +18°C° 0 mm 1 mps 746 mmHg 67%
21:00 +18°C° 0 mm 1 mps 746 mmHg 70%
22:00 +16°C° 0 mm 1 mps 747 mmHg 73%
23:00 +16°C° 0.1 mm 1 mps 747 mmHg 74%

4 August, Wednesday

Time Temperature Precipitation Wind Pressure Humidity
00:00 +16°C° 0.1 mm 1 mps 747 mmHg 75%
01:00 +16°C° 0.1 mm 1 mps 747 mmHg 77%
02:00 +15°C° 0.8 mm 1 mps 747 mmHg 82%
03:00 +15°C° 0.8 mm 1 mps 747 mmHg 88%
04:00 +13°C° 0.8 mm 0 mps 747 mmHg 93%
05:00 +14°C° 1 mm 1 mps 747 mmHg 93%
06:00 +14°C° 1 mm 1 mps 747 mmHg 93%
07:00 +14°C° 1 mm 1 mps 747 mmHg 93%
08:00 +15°C° 0.2 mm 1 mps 747 mmHg 91%
09:00 +15°C° 0.2 mm 1 mps 747 mmHg 88%
10:00 +15°C° 0.2 mm 1 mps 747 mmHg 85%
11:00 +18°C° 0.1 mm 1 mps 747 mmHg 76%
12:00 +20°C° 0.1 mm 1 mps 747 mmHg 66%
13:00 +21°C° 0.1 mm 1 mps 747 mmHg 57%
14:00 +20°C° 0.3 mm 2 mps 747 mmHg 57%
15:00 +20°C° 0.3 mm 2 mps 747 mmHg 57%
16:00 +20°C° 0.3 mm 2 mps 747 mmHg 57%
17:00 +19°C° 0.1 mm 2 mps 747 mmHg 62%
18:00 +18°C° 0.1 mm 2 mps 747 mmHg 68%
19:00 +18°C° 0.1 mm 1 mps 747 mmHg 73%
20:00 +16°C° 0 mm 1 mps 747 mmHg 77%
21:00 +15°C° 0 mm 1 mps 747 mmHg 82%
22:00 +14°C° 0 mm 1 mps 747 mmHg 86%
23:00 +13°C° 0 mm 1 mps 747 mmHg 87%
Show more